SCP
0 -0 -0 -0 -0 -0 -0 -0 -0 -0 -0 -0 -0 -0 -0 -0 -0 -0 0 -0 -0 -0 0 0 0 0 0 0 0 0 0 0 0 0 0 0 -0 0 0 0 0 0 0 0 0 0 0
0 0 0 0 0 -0 -0 -0 -0 -0 -0 -0 -0 -0 0 0 0 0 0 -0 -0 -0 0 0 0 0 0 0 0 0 0 0 0 0 0 0 0 0 0 0 0 0 0 -0 0 0 0
0 0 0 0 0 -0 -0 -0 -0 -0 0 0 0 0 0 0 0 0 0 -0 -0 -0 0 0 0 0 0 0 0 0 0 0 0 0 0 0 0 0 0 0 0 0 0 -0 0 0 0
0 0 0 0 0 0 0 0 0 0 0 0 0 0 0 0 0 0 -0 -0 -0 0 0 0 0 0 0 0 0 0 0 0 0 0 0 0 0 0 0 0 0 0 0 0 0 0 0
0 0 0 0 0 0 0 0 0 0 0 0 0 0 0 0 0 0 0 -0 0 0 0 0 0 0 0 0 0 0 0 0 0 0 0 0 0 0 0 0 0 0 0 0 0 0 0
0 0 0 0 0 0 0 0 0 0 0 0 0 0 0 0 0 0 0 0 0 0 0 0 0 0 0 0 0 0 0 0 0 0 0 0 0 0 0 0 0 0 0 0 0 0 0
0 0 0 0 0 0 0 0 0 0 0 0 0 0 0 0 0 0 0 0 0 0 0 0 0 0 0 0 0 0 0 0 0 0 0 0 0 0 0 0 0 0 0 0 0 0 0
0 0 0 0 0 0 0 0 0 0 0 0 0 0 0 -0 0 0 0 0 0 0 0 0 0 0 0 0 0 0 0 0 0 0 0 0 0 0 0 0 0 0 0 0 0 0 0
0 0 0 0 0 0 0 0 0 0 0 0 0 -0 -0 0 0 0 0 0 0 0 0 0 0 0 0 0 0 0 0 0 0 0 0 0 0 0 0 0 0 0 0 0 0 0 0
0 0 0 0 0 0 0 0 -0 0 0 0 0 0 0 0 0 0 0 0 0 0 0 0 0 0 0 0 0 0 0 0 0 0 0 0 0 0 0 0 0 0 0 0 0 0 0
0 0 0 0 0 0 0 0 0 0 0 0 0 0 0 0 0 0 0 0 0 0 0 0 0 0 0 0 0 0 0 0 0 0 0 0 0 0 0 0 0 0 0 0 0 0 0
0 0 0 0 0 0 0 0 0 0 0 0 0 0 0 0 0 0 0 0 0 0 0 0 0 0 0 0 0 0 0 0 0 0 0 0 0 0 0 0 0 0 0 0 0 0 0
0 0 0 0 0 0 0 0 0 0 0 0 0 0 0 0 0 0 0 0 0 0 0 0 0 0 0 0 0 0 0 0 0 0 0 0 0 0 0 0 0 0 0 0 0 0 0
0 0 0 0 0 0 0 0 0 0 0 0 0 -0 0 0 0 0 0 0 0 0 0 0 0 0 0 0 0 0 0 0 0 0 0 0 0 0 0 0 0 0 0 0 0 0 0
0 0 0 0 0 0 0 0 0 0 0 0 -0 0 0 0 0 0 0 0 0 0 0 0 0 0 0 0 0 0 0 0 0 0 0 0 0 0 0 0 0 0 0 0 0 0 0
0 0 0 0 0 0 0 0 0 -0 -0 0 0 0 0 0 0 0 0 0 0 0 0 0 0 0 0 0 0 0 0 0 0 0 0 0 0 0 0 0 0 0 0 0 0 0 0
0 0 0 0 0 0 0 0 -0 -0 -0 0 0 0 0 0 0 0 0 0 0 0 0 0 0 0 0 0 0 0 0 0 0 0 0 0 0 0 0 0 0 0 0 0 0 0 0
0 0 0 0 0 0 0 -0 -0 -0 0 0 0 0 0 0 0 0 0 0 0 0 0 0 0 0 0 0 0 0 0 0 0 0 0 0 0 0 0 0 0 0 0 0 0 0 0
0 0 0 0 0 0 0 0 0 -0 0 0 0 0 0 0 0 0 0 0 0 0 0 0 0 0 0 0 0 0 0 0 0 0 0 0 0 0 0 0 0 0 0 0 0 0 0
0 0 0 0 0 0 0 0 0 0 0 0 0 0 0 0 0 0 0 0 0 0 0 0 0 0 0 0 0 0 0 0 0 0 0 0 0 0 0 0 0 0 0 0 0 0 0
0 0 0 0 0 0 0 0 0 0 0 0 0 0 0 0 0 0 0 0 0 0 0 0 0 0 0 0 0 0 0 0 0 0 0 0 0 0 0 0 0 0 0 0 0 0 0
0 0 0 0 0 0 0 0 0 0 0 0 0 0 0 0 0 0 0 0 0 0 0 0 0 0 0 0 0 0 0 0 0 0 0 0 0 0 0 0 0 0 0 0 0 0 0
0 0 0 0 0 0 0 0 0 0 0 0 0 0 0 0 0 0 0 0 0 0 0 0 0 0 0 0 0 0 0 0 0 0 0 0 0 0 0 0 0 0 0 0 0 0 0
0 0 0 0 0 0 0 0 0 0 0 0 0 0 0 0 0 0 0 0 0 0 0 0 0 0 0 0 0 0 0 0 0 0 0 0 0 0 0 0 0 0 0 0 0 0 0
0 0 0 0 0 0 0 0 0 0 0 0 0 0 0 0 0 0 0 0 0 0 0 0 0 0 0 0 0 0 0 0 0 0 0 0 0 0 0 0 0 0 0 0 0 0 0
0 0 0 0 0 0 0 0 0 0 0 0 0 0 0 0 0 0 0 0 0 0 0 0 0 0 0 0 0 0 0 0 0 0 0 0 0 0 0 0 0 0 0 0 0 0 0
0 0 0 0 0 0 0 0 0 0 0 0 0 0 0 0 0 0 0 0 0 0 0 0 0 0 0 0 0 0 0 0 0 0 0 0 0 0 0 0 0 0 0 0 0 0 0
0 0 0 0 0 0 0 0 0 0 0 0 0 0 0 0 0 0 -0 0 0 0 0 0 0 0 0 0 0 0 0 0 0 0 0 0 0 0 0 0 0 0 0 0 0 0 0
0 0 0 0 0 0 0 0 0 0 0 0 0 0 0 0 0 0 0 0 0 0 0 0 0 0 0 0 0 0 0 0 0 0 0 0 0 0 0 0 0 0 0 0 0 0 0
Wind_Speed_500mb
18 18 18 19 19 20 19 20 21 22 24 26 28 30 31 32 31 31 27 26 29 28 27 23 17 14 10 7 12 14 11 12 13 14 12 13 10 12 9 13 13 15 14 21 25 36 34
17 18 18 17 16 16 17 19 20 22 24 26 27 30 32 33 34 33 28 28 29 29 29 23 17 13 7 10 12 15 12 11 11 13 9 8 6 10 14 9 8 18 26 42 29 21 16
16 16 15 14 16 19 20 21 23 24 26 28 29 30 31 32 35 36 32 34 35 34 25 17 14 11 14 19 16 16 14 12 13 10 3 14 7 4 14 12 5 15 13 22 19 7 5
15 13 15 18 18 19 21 22 24 26 27 28 30 32 33 35 36 36 34 37 41 29 21 13 10 8 11 16 20 18 17 14 13 10 8 13 10 10 10 14 9 7 8 8 10 18 9
11 14 13 15 16 18 20 23 24 25 27 29 30 32 33 33 35 35 36 40 38 33 14 7 7 6 10 10 13 16 15 8 13 10 7 6 3 8 7 7 8 8 10 15 11 18 7
12 13 14 15 17 21 23 25 28 30 31 32 33 33 34 36 36 36 33 37 27 21 6 12 7 8 12 2 12 12 13 15 9 8 8 7 11 6 8 8 6 11 11 12 13 1 14
14 17 19 21 24 27 30 33 34 35 35 35 35 35 34 35 35 34 32 25 18 8 17 23 15 11 6 15 10 9 12 6 8 10 7 14 6 15 17 5 8 10 14 18 22 8 7
21 24 27 30 30 31 32 34 37 39 40 41 40 39 36 35 35 31 27 13 13 16 29 31 33 35 30 16 5 13 16 12 12 11 21 4 15 1 11 3 8 13 17 21 10 6 8
26 27 27 29 32 35 38 39 40 41 42 43 43 42 38 33 31 20 24 17 24 23 11 8 12 7 9 25 13 21 19 9 11 13 18 16 3 8 3 10 15 18 17 10 5 17 16
30 29 29 31 33 34 34 35 38 40 39 40 43 41 39 29 19 18 11 24 25 22 6 9 6 4 5 8 6 15 20 10 8 8 8 16 2 8 12 16 14 14 4 6 13 11 5
27 26 26 27 28 29 31 34 37 40 38 39 39 39 32 27 18 9 16 20 21 8 10 4 7 6 7 10 2 9 19 8 12 9 6 12 8 9 13 15 11 10 10 10 9 9 10
20 22 25 26 29 31 32 33 36 39 40 38 35 33 24 19 14 16 12 13 9 2 14 3 8 5 6 14 7 6 5 11 9 8 13 25 9 6 8 5 5 15 12 17 13 5 2
22 24 24 26 28 31 32 33 34 38 40 36 33 28 21 10 7 8 5 3 2 6 11 4 3 5 12 7 10 14 10 10 9 2 8 6 19 9 7 6 8 8 8 6 6 1 11
18 18 22 27 31 34 37 37 37 41 44 38 34 25 15 11 9 7 6 4 8 10 16 10 8 11 9 11 11 16 7 13 20 20 8 6 10 18 17 7 1 13 2 7 8 5 10
17 22 26 30 35 39 42 41 38 38 40 36 24 17 20 19 5 12 6 4 9 3 8 17 23 14 12 12 3 4 14 12 11 15 12 9 7 7 4 5 2 7 8 1 5 10 5
22 25 28 32 35 40 44 46 44 41 41 37 16 13 25 17 4 16 4 6 7 10 16 10 9 12 20 19 6 7 8 7 6 13 15 7 11 3 3 1 2 2 8 1 2 4 9
23 27 30 34 38 40 43 44 47 44 38 30 11 1 18 11 9 1 5 7 7 15 18 9 13 16 17 24 21 19 10 6 12 5 8 8 7 2 10 11 12 5 5 8 2 6 8
20 22 29 37 40 42 43 43 44 48 42 26 12 4 20 3 6 3 6 8 12 11 13 9 12 18 18 15 20 16 17 9 23 14 7 2 7 7 12 1 7 3 7 14 8 9 7
17 25 30 33 36 42 46 48 45 41 43 34 12 7 16 12 5 3 8 9 14 10 8 9 9 9 10 8 12 11 7 9 24 15 8 11 7 7 11 6 3 3 9 10 10 7 8
18 21 25 30 38 43 46 47 48 38 33 17 13 5 6 7 8 8 10 13 6 4 18 7 17 18 12 14 17 15 15 5 27 8 17 8 8 13 16 16 7 5 10 9 11 5 9
19 20 23 29 35 40 44 49 48 44 28 10 17 7 7 6 5 15 16 10 19 12 5 16 8 0 10 9 21 16 12 15 20 5 6 5 13 15 21 18 10 16 19 21 23 27 17
17 21 25 29 35 37 42 44 47 43 37 27 13 14 19 21 16 14 11 7 8 15 10 13 12 20 14 16 24 29 24 18 15 19 11 5 9 12 20 16 20 33 35 29 33 31 28
19 23 26 28 30 34 38 42 46 45 40 20 23 17 14 15 7 10 4 15 14 26 21 27 20 22 23 25 23 35 40 43 38 24 13 11 8 7 10 8 13 22 22 33 26 20 15
17 20 23 27 30 30 32 35 38 41 38 23 19 17 10 9 16 15 33 34 27 24 26 42 37 27 25 43 47 45 56 65 60 46 46 21 14 11 8 9 10 16 13 13 28 24 29
16 21 23 26 28 28 29 32 33 33 32 28 23 14 8 11 29 28 36 29 32 37 39 30 38 21 29 33 12 13 9 12 24 43 37 35 23 10 7 14 20 29 13 5 9 19 29
16 17 20 23 27 27 27 28 28 28 28 28 23 20 12 9 7 41 35 34 23 23 17 32 35 22 18 10 10 10 7 14 9 1 10 18 28 18 5 8 8 14 30 44 0 11 33
18 20 22 27 30 30 29 28 28 29 29 29 31 22 19 16 26 13 23 22 32 25 15 30 23 16 15 6 14 17 19 20 12 8 12 4 5 27 24 11 3 37 34 38 4 10 35
19 21 23 26 29 35 31 26 28 29 31 28 36 30 26 23 40 45 34 41 39 36 14 25 22 12 8 6 7 8 7 12 10 24 15 9 10 3 9 17 20 50 25 16 20 37 38
17 18 22 27 31 39 23 27 30 30 31 31 40 30 32 34 53 65 66 56 58 64 60 19 19 44 10 5 5 6 6 5 12 14 17 12 14 11 10 17 42 25 35 50 45 30 40
Wind_Direction_500mb
64 57 51 45 42 37 33 28 22 17 14 13 11 9 7 3 359 353 348 346 345 339 332 326 310 297 304 303 260 275 292 317 332 349 2 4 346 343 318 342 333 231 272 309 295 292 288
64 58 51 46 39 29 21 15 12 7 5 4 4 2 1 358 355 352 346 338 335 331 324 317 307 294 279 254 257 262 272 298 325 344 330 354 324 315 284 276 288 344 305 284 285 261 264
66 57 44 29 20 15 9 4 1 358 356 357 357 355 354 353 351 348 344 338 332 325 319 309 296 282 262 248 255 263 253 287 307 315 286 291 274 294 323 258 338 280 296 283 238 207 295
51 41 27 18 10 4 359 355 352 351 351 349 348 347 348 347 347 343 340 338 335 331 325 307 286 272 254 251 255 249 246 283 292 296 280 271 283 274 235 304 258 243 234 310 188 160 158
38 30 19 6 357 350 348 347 344 341 342 341 341 340 339 340 341 340 336 337 332 330 338 319 292 265 273 260 245 238 232 218 260 283 289 277 262 260 212 243 273 198 289 323 338 169 167
15 4 354 345 341 342 341 337 335 337 336 337 335 335 336 335 337 336 337 339 335 339 1 342 265 279 236 254 232 223 229 232 235 245 274 197 217 235 216 234 259 310 322 312 292 13 200
6 354 346 339 337 335 335 333 329 329 329 328 326 327 330 332 334 335 339 355 345 337 304 251 272 254 239 244 250 250 242 193 229 236 246 195 244 224 245 117 340 304 279 274 284 80 331
358 349 341 336 332 331 327 325 324 324 324 321 320 321 325 329 332 334 344 24 4 312 309 286 248 245 239 229 235 217 209 207 187 236 207 191 233 160 79 111 245 264 274 270 271 92 259
346 339 334 328 330 330 330 329 325 324 324 321 318 317 317 321 324 333 345 354 343 337 274 270 244 231 205 213 222 212 196 203 246 255 243 225 171 135 208 249 243 247 243 300 304 317 265
343 342 342 339 336 336 335 331 328 327 328 325 321 318 317 319 312 337 315 334 340 344 297 201 196 186 188 162 236 197 189 217 212 253 302 254 125 221 239 252 247 280 79 330 308 344 274
345 346 344 342 340 338 338 336 332 329 331 325 320 319 323 321 296 315 300 322 337 12 338 99 135 185 182 217 123 204 200 204 252 236 145 256 179 192 233 249 227 223 9 278 269 266 290
352 352 352 352 350 348 347 344 343 341 341 337 327 316 318 315 309 296 301 326 342 8 253 142 115 182 216 200 212 133 191 228 289 297 244 246 138 224 247 353 234 331 300 269 195 197 321
359 7 7 1 358 357 356 354 351 347 347 349 340 330 323 307 217 261 297 346 328 201 288 118 347 168 254 203 206 178 180 194 222 330 255 273 223 167 219 243 172 222 275 323 326 71 230
3 7 15 16 11 6 2 0 354 351 350 351 344 340 347 348 305 248 162 239 234 279 283 23 33 305 262 320 214 186 266 248 224 237 311 244 306 172 167 237 96 201 115 173 267 256 282
23 30 25 20 16 11 5 3 0 352 351 353 348 17 14 356 351 170 126 197 224 5 353 338 318 255 259 235 317 236 214 245 271 177 196 307 241 41 195 84 38 167 200 241 325 284 55
33 29 23 16 12 7 3 360 359 359 354 352 4 69 6 8 85 146 254 261 247 16 355 320 293 273 296 310 265 213 245 24 24 31 354 301 310 125 106 276 161 258 336 127 306 246 257
32 22 14 8 6 4 359 359 358 359 2 352 30 89 7 25 119 135 237 246 345 357 356 314 327 310 307 309 293 296 278 356 12 37 342 312 237 210 138 213 187 151 233 235 276 238 211
24 11 360 357 358 1 2 360 360 358 5 10 43 334 355 18 275 258 290 22 342 298 322 293 301 276 278 323 297 289 286 339 7 332 276 80 307 275 257 71 69 2 240 190 165 258 220
358 355 6 9 6 4 4 6 8 8 5 5 0 308 345 18 325 306 11 310 274 300 333 322 301 52 331 295 315 315 21 82 25 348 12 360 256 292 318 86 43 223 251 233 296 341 225
16 22 15 2 359 358 0 3 8 15 10 15 349 338 347 40 67 353 1 283 274 200 287 258 286 304 320 275 254 273 294 56 353 335 328 317 262 248 249 271 353 259 289 242 224 246 278
24 18 5 359 358 359 358 357 6 15 19 49 9 46 360 320 87 341 301 279 286 303 340 311 239 208 358 292 318 278 318 349 324 298 285 247 264 257 262 280 300 293 266 266 271 256 246
3 359 353 352 352 356 1 3 5 14 27 37 30 358 341 295 302 297 283 268 317 318 329 291 293 328 335 291 287 311 336 329 277 300 295 252 272 307 279 268 267 264 257 253 254 269 267
356 359 0 6 9 8 13 17 15 18 23 47 16 358 314 292 307 316 356 354 330 333 287 263 324 324 307 308 328 303 292 278 271 274 286 296 297 317 278 262 341 286 248 245 249 257 259
6 8 4 4 5 13 16 13 15 19 24 32 1 1 335 303 342 322 326 316 297 301 290 299 306 292 305 320 312 291 261 252 246 244 236 245 255 239 264 29 247 258 328 110 91 41 19
20 17 12 9 6 3 6 8 8 10 8 16 355 349 332 301 319 306 337 326 315 312 299 282 289 283 322 318 289 291 269 234 241 240 228 222 232 269 248 205 277 309 16 8 167 48 15
4 354 346 344 345 345 348 352 352 351 353 348 348 329 312 315 217 332 320 307 303 301 315 324 322 304 300 274 266 259 292 332 312 261 10 201 200 216 212 231 247 12 331 328 349 82 22
336 339 340 339 339 337 334 335 334 334 339 333 328 321 300 280 287 285 310 300 300 291 298 304 322 303 254 253 279 279 273 283 290 334 348 313 171 220 221 251 346 349 339 320 334 26 350
343 344 345 352 349 344 334 330 334 326 325 321 316 316 291 279 286 289 296 278 282 285 276 305 326 254 251 263 284 342 354 13 317 344 336 343 330 243 213 205 236 14 21 40 330 322 315
351 352 353 345 333 335 334 335 332 325 319 319 309 310 302 278 273 290 294 287 277 275 277 270 261 290 303 288 311 351 322 306 305 302 308 288 315 298 300 295 308 27 348 333 331 3 4
Wind_Speed_850mb
18 18 18 19 19 20 19 20 21 22 24 26 28 30 31 32 31 31 27 26 29 28 27 23 17 14 10 7 12 14 11 12 13 14 12 13 10 12 9 13 13 15 14 21 25 36 34
17 18 18 17 16 16 17 19 20 22 24 26 27 30 32 33 34 33 28 28 29 29 29 23 17 13 7 10 12 15 12 11 11 13 9 8 6 10 14 9 8 18 26 42 29 21 16
16 16 15 14 16 19 20 21 23 24 26 28 29 30 31 32 35 36 32 34 35 34 25 17 14 11 14 19 16 16 14 12 13 10 3 14 7 4 14 12 5 15 13 22 19 7 5
15 13 15 18 18 19 21 22 24 26 27 28 30 32 33 35 36 36 34 37 41 29 21 13 10 8 11 16 20 18 17 14 13 10 8 13 10 10 10 14 9 7 8 8 10 18 9
11 14 13 15 16 18 20 23 24 25 27 29 30 32 33 33 35 35 36 40 38 33 14 7 7 6 10 10 13 16 15 8 13 10 7 6 3 8 7 7 8 8 10 15 11 18 7
12 13 14 15 17 21 23 25 28 30 31 32 33 33 34 36 36 36 33 37 27 21 6 12 7 8 12 2 12 12 13 15 9 8 8 7 11 6 8 8 6 11 11 12 13 1 14
14 17 19 21 24 27 30 33 34 35 35 35 35 35 34 35 35 34 32 25 18 8 17 23 15 11 6 15 10 9 12 6 8 10 7 14 6 15 17 5 8 10 14 18 22 8 7
21 24 27 30 30 31 32 34 37 39 40 41 40 39 36 35 35 31 27 13 13 16 29 31 33 35 30 16 5 13 16 12 12 11 21 4 15 1 11 3 8 13 17 21 10 6 8
26 27 27 29 32 35 38 39 40 41 42 43 43 42 38 33 31 20 24 17 24 23 11 8 12 7 9 25 13 21 19 9 11 13 18 16 3 8 3 10 15 18 17 10 5 17 16
30 29 29 31 33 34 34 35 38 40 39 40 43 41 39 29 19 18 11 24 25 22 6 9 6 4 5 8 6 15 20 10 8 8 8 16 2 8 12 16 14 14 4 6 13 11 5
27 26 26 27 28 29 31 34 37 40 38 39 39 39 32 27 18 9 16 20 21 8 10 4 7 6 7 10 2 9 19 8 12 9 6 12 8 9 13 15 11 10 10 10 9 9 10
20 22 25 26 29 31 32 33 36 39 40 38 35 33 24 19 14 16 12 13 9 2 14 3 8 5 6 14 7 6 5 11 9 8 13 25 9 6 8 5 5 15 12 17 13 5 2
22 24 24 26 28 31 32 33 34 38 40 36 33 28 21 10 7 8 5 3 2 6 11 4 3 5 12 7 10 14 10 10 9 2 8 6 19 9 7 6 8 8 8 6 6 1 11
18 18 22 27 31 34 37 37 37 41 44 38 34 25 15 11 9 7 6 4 8 10 16 10 8 11 9 11 11 16 7 13 20 20 8 6 10 18 17 7 1 13 2 7 8 5 10
17 22 26 30 35 39 42 41 38 38 40 36 24 17 20 19 5 12 6 4 9 3 8 17 23 14 12 12 3 4 14 12 11 15 12 9 7 7 4 5 2 7 8 1 5 10 5
22 25 28 32 35 40 44 46 44 41 41 37 16 13 25 17 4 16 4 6 7 10 16 10 9 12 20 19 6 7 8 7 6 13 15 7 11 3 3 1 2 2 8 1 2 4 9
23 27 30 34 38 40 43 44 47 44 38 30 11 1 18 11 9 1 5 7 7 15 18 9 13 16 17 24 21 19 10 6 12 5 8 8 7 2 10 11 12 5 5 8 2 6 8
20 22 29 37 40 42 43 43 44 48 42 26 12 4 20 3 6 3 6 8 12 11 13 9 12 18 18 15 20 16 17 9 23 14 7 2 7 7 12 1 7 3 7 14 8 9 7
17 25 30 33 36 42 46 48 45 41 43 34 12 7 16 12 5 3 8 9 14 10 8 9 9 9 10 8 12 11 7 9 24 15 8 11 7 7 11 6 3 3 9 10 10 7 8
18 21 25 30 38 43 46 47 48 38 33 17 13 5 6 7 8 8 10 13 6 4 18 7 17 18 12 14 17 15 15 5 27 8 17 8 8 13 16 16 7 5 10 9 11 5 9
19 20 23 29 35 40 44 49 48 44 28 10 17 7 7 6 5 15 16 10 19 12 5 16 8 0 10 9 21 16 12 15 20 5 6 5 13 15 21 18 10 16 19 21 23 27 17
17 21 25 29 35 37 42 44 47 43 37 27 13 14 19 21 16 14 11 7 8 15 10 13 12 20 14 16 24 29 24 18 15 19 11 5 9 12 20 16 20 33 35 29 33 31 28
19 23 26 28 30 34 38 42 46 45 40 20 23 17 14 15 7 10 4 15 14 26 21 27 20 22 23 25 23 35 40 43 38 24 13 11 8 7 10 8 13 22 22 33 26 20 15
17 20 23 27 30 30 32 35 38 41 38 23 19 17 10 9 16 15 33 34 27 24 26 42 37 27 25 43 47 45 56 65 60 46 46 21 14 11 8 9 10 16 13 13 28 24 29
16 21 23 26 28 28 29 32 33 33 32 28 23 14 8 11 29 28 36 29 32 37 39 30 38 21 29 33 12 13 9 12 24 43 37 35 23 10 7 14 20 29 13 5 9 19 29
16 17 20 23 27 27 27 28 28 28 28 28 23 20 12 9 7 41 35 34 23 23 17 32 35 22 18 10 10 10 7 14 9 1 10 18 28 18 5 8 8 14 30 44 0 11 33
18 20 22 27 30 30 29 28 28 29 29 29 31 22 19 16 26 13 23 22 32 25 15 30 23 16 15 6 14 17 19 20 12 8 12 4 5 27 24 11 3 37 34 38 4 10 35
19 21 23 26 29 35 31 26 28 29 31 28 36 30 26 23 40 45 34 41 39 36 14 25 22 12 8 6 7 8 7 12 10 24 15 9 10 3 9 17 20 50 25 16 20 37 38
17 18 22 27 31 39 23 27 30 30 31 31 40 30 32 34 53 65 66 56 58 64 60 19 19 44 10 5 5 6 6 5 12 14 17 12 14 11 10 17 42 25 35 50 45 30 40
Wind_Direction_850mb
64 57 51 45 42 37 33 28 22 17 14 13 11 9 7 3 359 353 348 346 345 339 332 326 310 297 304 303 260 275 292 317 332 349 2 4 346 343 318 342 333 231 272 309 295 292 288
64 58 51 46 39 29 21 15 12 7 5 4 4 2 1 358 355 352 346 338 335 331 324 317 307 294 279 254 257 262 272 298 325 344 330 354 324 315 284 276 288 344 305 284 285 261 264
66 57 44 29 20 15 9 4 1 358 356 357 357 355 354 353 351 348 344 338 332 325 319 309 296 282 262 248 255 263 253 287 307 315 286 291 274 294 323 258 338 280 296 283 238 207 295
51 41 27 18 10 4 359 355 352 351 351 349 348 347 348 347 347 343 340 338 335 331 325 307 286 272 254 251 255 249 246 283 292 296 280 271 283 274 235 304 258 243 234 310 188 160 158
38 30 19 6 357 350 348 347 344 341 342 341 341 340 339 340 341 340 336 337 332 330 338 319 292 265 273 260 245 238 232 218 260 283 289 277 262 260 212 243 273 198 289 323 338 169 167
15 4 354 345 341 342 341 337 335 337 336 337 335 335 336 335 337 336 337 339 335 339 1 342 265 279 236 254 232 223 229 232 235 245 274 197 217 235 216 234 259 310 322 312 292 13 200
6 354 346 339 337 335 335 333 329 329 329 328 326 327 330 332 334 335 339 355 345 337 304 251 272 254 239 244 250 250 242 193 229 236 246 195 244 224 245 117 340 304 279 274 284 80 331
358 349 341 336 332 331 327 325 324 324 324 321 320 321 325 329 332 334 344 24 4 312 309 286 248 245 239 229 235 217 209 207 187 236 207 191 233 160 79 111 245 264 274 270 271 92 259
346 339 334 328 330 330 330 329 325 324 324 321 318 317 317 321 324 333 345 354 343 337 274 270 244 231 205 213 222 212 196 203 246 255 243 225 171 135 208 249 243 247 243 300 304 317 265
343 342 342 339 336 336 335 331 328 327 328 325 321 318 317 319 312 337 315 334 340 344 297 201 196 186 188 162 236 197 189 217 212 253 302 254 125 221 239 252 247 280 79 330 308 344 274
345 346 344 342 340 338 338 336 332 329 331 325 320 319 323 321 296 315 300 322 337 12 338 99 135 185 182 217 123 204 200 204 252 236 145 256 179 192 233 249 227 223 9 278 269 266 290
352 352 352 352 350 348 347 344 343 341 341 337 327 316 318 315 309 296 301 326 342 8 253 142 115 182 216 200 212 133 191 228 289 297 244 246 138 224 247 353 234 331 300 269 195 197 321
359 7 7 1 358 357 356 354 351 347 347 349 340 330 323 307 217 261 297 346 328 201 288 118 347 168 254 203 206 178 180 194 222 330 255 273 223 167 219 243 172 222 275 323 326 71 230
3 7 15 16 11 6 2 0 354 351 350 351 344 340 347 348 305 248 162 239 234 279 283 23 33 305 262 320 214 186 266 248 224 237 311 244 306 172 167 237 96 201 115 173 267 256 282
23 30 25 20 16 11 5 3 0 352 351 353 348 17 14 356 351 170 126 197 224 5 353 338 318 255 259 235 317 236 214 245 271 177 196 307 241 41 195 84 38 167 200 241 325 284 55
33 29 23 16 12 7 3 360 359 359 354 352 4 69 6 8 85 146 254 261 247 16 355 320 293 273 296 310 265 213 245 24 24 31 354 301 310 125 106 276 161 258 336 127 306 246 257
32 22 14 8 6 4 359 359 358 359 2 352 30 89 7 25 119 135 237 246 345 357 356 314 327 310 307 309 293 296 278 356 12 37 342 312 237 210 138 213 187 151 233 235 276 238 211
24 11 360 357 358 1 2 360 360 358 5 10 43 334 355 18 275 258 290 22 342 298 322 293 301 276 278 323 297 289 286 339 7 332 276 80 307 275 257 71 69 2 240 190 165 258 220
358 355 6 9 6 4 4 6 8 8 5 5 0 308 345 18 325 306 11 310 274 300 333 322 301 52 331 295 315 315 21 82 25 348 12 360 256 292 318 86 43 223 251 233 296 341 225
16 22 15 2 359 358 0 3 8 15 10 15 349 338 347 40 67 353 1 283 274 200 287 258 286 304 320 275 254 273 294 56 353 335 328 317 262 248 249 271 353 259 289 242 224 246 278
24 18 5 359 358 359 358 357 6 15 19 49 9 46 360 320 87 341 301 279 286 303 340 311 239 208 358 292 318 278 318 349 324 298 285 247 264 257 262 280 300 293 266 266 271 256 246
3 359 353 352 352 356 1 3 5 14 27 37 30 358 341 295 302 297 283 268 317 318 329 291 293 328 335 291 287 311 336 329 277 300 295 252 272 307 279 268 267 264 257 253 254 269 267
356 359 0 6 9 8 13 17 15 18 23 47 16 358 314 292 307 316 356 354 330 333 287 263 324 324 307 308 328 303 292 278 271 274 286 296 297 317 278 262 341 286 248 245 249 257 259
6 8 4 4 5 13 16 13 15 19 24 32 1 1 335 303 342 322 326 316 297 301 290 299 306 292 305 320 312 291 261 252 246 244 236 245 255 239 264 29 247 258 328 110 91 41 19
20 17 12 9 6 3 6 8 8 10 8 16 355 349 332 301 319 306 337 326 315 312 299 282 289 283 322 318 289 291 269 234 241 240 228 222 232 269 248 205 277 309 16 8 167 48 15
4 354 346 344 345 345 348 352 352 351 353 348 348 329 312 315 217 332 320 307 303 301 315 324 322 304 300 274 266 259 292 332 312 261 10 201 200 216 212 231 247 12 331 328 349 82 22
336 339 340 339 339 337 334 335 334 334 339 333 328 321 300 280 287 285 310 300 300 291 298 304 322 303 254 253 279 279 273 283 290 334 348 313 171 220 221 251 346 349 339 320 334 26 350
343 344 345 352 349 344 334 330 334 326 325 321 316 316 291 279 286 289 296 278 282 285 276 305 326 254 251 263 284 342 354 13 317 344 336 343 330 243 213 205 236 14 21 40 330 322 315
351 352 353 345 333 335 334 335 332 325 319 319 309 310 302 278 273 290 294 287 277 275 277 270 261 290 303 288 311 351 322 306 305 302 308 288 315 298 300 295 308 27 348 333 331 3 4